Time,TemperatureF,DewpointF,PressureIn,WindDirection,WindDirectionDegrees,WindSpeedMPH,WindSpeedGustMPH,Humidity,HourlyPrecipIn,Conditions,Clouds,dailyrainin,SolarRadiationWatts/m^2,SoftwareType,DateUTC
2013-08-17 00:01:00,58.4,57.0,30.18,ENE,61,0.0,0.0,95,0.00,,,0.00,0,WxPro DR1,2013-08-17 04:01:00,
2013-08-17 00:06:00,58.4,57.3,30.18,ENE,61,0.0,0.0,96,0.00,,,0.00,0,WxPro DR1,2013-08-17 04:06:00,
2013-08-17 00:11:00,58.6,57.5,30.18,ENE,61,0.0,0.0,96,0.00,,,0.00,0,WxPro DR1,2013-08-17 04:11:00,
2013-08-17 00:16:00,58.7,57.6,30.18,ENE,61,0.0,1.0,96,0.00,,,0.00,0,WxPro DR1,2013-08-17 04:16:00,
2013-08-17 00:21:00,59.0,57.8,30.18,ENE,61,0.0,1.0,96,0.00,,,0.00,0,WxPro DR1,2013-08-17 04:21:00,
2013-08-17 00:26:00,59.0,57.9,30.18,ENE,61,0.0,0.0,96,0.00,,,0.00,0,WxPro DR1,2013-08-17 04:26:00,
2013-08-17 00:31:00,59.0,57.9,30.18,ENE,61,0.0,0.0,96,0.00,,,0.00,0,WxPro DR1,2013-08-17 04:31:00,
2013-08-17 00:36:00,59.0,57.9,30.19,ENE,61,0.0,0.0,96,0.00,,,0.00,0,WxPro DR1,2013-08-17 04:36:00,
2013-08-17 00:41:00,59.0,57.9,30.19,ENE,61,0.0,0.0,96,0.00,,,0.00,0,WxPro DR1,2013-08-17 04:41:00,
2013-08-17 00:46:00,59.0,57.9,30.19,ENE,61,0.0,0.0,96,0.00,,,0.00,0,WxPro DR1,2013-08-17 04:46:00,
2013-08-17 00:51:00,59.0,57.8,30.19,ENE,61,0.0,1.0,96,0.00,,,0.00,0,WxPro DR1,2013-08-17 04:51:00,
2013-08-17 00:56:00,58.9,57.8,30.19,ENE,62,0.0,1.0,96,0.00,,,0.00,0,WxPro DR1,2013-08-17 04:56:00,
2013-08-17 01:01:00,58.8,57.6,30.19,ENE,61,0.0,0.0,96,0.00,,,0.00,0,WxPro DR1,2013-08-17 05:01:00,
2013-08-17 01:06:00,58.7,57.5,30.19,ENE,61,0.0,0.0,96,0.00,,,0.00,0,WxPro DR1,2013-08-17 05:06:00,
2013-08-17 01:11:00,58.6,57.5,30.19,ENE,61,0.0,0.0,96,0.00,,,0.00,0,WxPro DR1,2013-08-17 05:11:00,
2013-08-17 01:16:00,58.5,57.3,30.19,ENE,61,0.0,0.0,96,0.00,,,0.00,0,WxPro DR1,2013-08-17 05:16:00,
2013-08-17 01:21:00,58.4,57.3,30.20,ENE,61,0.0,0.0,96,0.00,,,0.00,0,WxPro DR1,2013-08-17 05:21:00,
2013-08-17 01:26:00,58.3,57.1,30.20,ENE,61,0.0,1.0,96,0.00,,,0.00,0,WxPro DR1,2013-08-17 05:26:00,
2013-08-17 01:31:00,58.2,57.1,30.20,ENE,61,0.0,1.0,96,0.00,,,0.00,0,WxPro DR1,2013-08-17 05:31:00,
2013-08-17 01:36:00,58.1,57.0,30.20,ENE,61,0.0,0.0,96,0.00,,,0.00,0,WxPro DR1,2013-08-17 05:36:00,
2013-08-17 01:41:00,58.0,56.9,30.20,ENE,61,0.0,0.0,96,0.00,,,0.00,0,WxPro DR1,2013-08-17 05:41:00,
2013-08-17 01:46:00,57.9,56.8,30.20,ENE,61,0.0,0.0,96,0.00,,,0.00,0,WxPro DR1,2013-08-17 05:46:00,
2013-08-17 01:51:00,57.8,56.7,30.20,ENE,61,0.0,0.0,96,0.00,,,0.00,0,WxPro DR1,2013-08-17 05:51:00,
2013-08-17 01:56:00,57.7,56.6,30.20,ENE,61,0.0,0.0,96,0.00,,,0.00,0,WxPro DR1,2013-08-17 05:56:00,
2013-08-17 02:01:00,57.6,56.5,30.20,ENE,61,0.0,0.0,96,0.00,,,0.00,0,WxPro DR1,2013-08-17 06:01:00,
2013-08-17 02:06:00,57.5,56.4,30.20,ENE,61,0.0,0.0,96,0.00,,,0.00,0,WxPro DR1,2013-08-17 06:06:00,
2013-08-17 02:11:00,57.5,56.3,30.20,ENE,62,0.0,0.0,96,0.00,,,0.00,0,WxPro DR1,2013-08-17 06:11:00,
2013-08-17 02:16:00,57.4,56.3,30.20,ENE,61,0.0,0.0,96,0.00,,,0.00,0,WxPro DR1,2013-08-17 06:16:00,
2013-08-17 02:21:00,57.3,56.2,30.21,ENE,61,0.0,0.0,96,0.00,,,0.00,0,WxPro DR1,2013-08-17 06:21:00,
2013-08-17 02:26:00,57.3,56.2,30.20,ENE,61,0.0,0.0,96,0.00,,,0.00,0,WxPro DR1,2013-08-17 06:26:00,
2013-08-17 02:31:00,57.3,56.2,30.21,ENE,61,0.0,3.0,96,0.00,,,0.00,0,WxPro DR1,2013-08-17 06:31:00,
2013-08-17 02:36:00,57.3,56.4,30.20,ENE,61,0.0,3.0,97,0.00,,,0.00,0,WxPro DR1,2013-08-17 06:36:00,
2013-08-17 02:41:00,57.2,56.4,30.20,ENE,61,0.0,0.0,97,0.00,,,0.00,0,WxPro DR1,2013-08-17 06:41:00,
2013-08-17 02:46:00,57.1,56.3,30.20,ENE,61,0.0,0.0,97,0.00,,,0.00,0,WxPro DR1,2013-08-17 06:46:00,
2013-08-17 02:51:00,57.0,56.2,30.20,ENE,61,0.0,0.0,97,0.00,,,0.00,0,WxPro DR1,2013-08-17 06:51:00,
2013-08-17 02:56:00,56.9,56.1,30.21,ENE,61,0.0,1.0,97,0.00,,,0.00,0,WxPro DR1,2013-08-17 06:56:00,
2013-08-17 03:01:00,56.9,56.1,30.21,ENE,62,0.0,1.0,97,0.00,,,0.00,0,WxPro DR1,2013-08-17 07:01:00,
2013-08-17 03:06:00,56.8,56.0,30.21,ENE,62,0.0,1.0,97,0.00,,,0.00,0,WxPro DR1,2013-08-17 07:06:00,
2013-08-17 03:11:00,56.8,56.0,30.21,ENE,61,0.0,1.0,97,0.00,,,0.00,0,WxPro DR1,2013-08-17 07:11:00,
2013-08-17 03:16:00,56.8,55.9,30.21,ENE,61,0.0,1.0,97,0.00,,,0.00,0,WxPro DR1,2013-08-17 07:16:00,
2013-08-17 03:21:00,56.7,55.8,30.21,ENE,61,0.0,1.0,97,0.00,,,0.00,0,WxPro DR1,2013-08-17 07:21:00,
2013-08-17 03:26:00,56.7,55.8,30.21,ENE,61,0.0,0.0,97,0.00,,,0.00,0,WxPro DR1,2013-08-17 07:26:00,
2013-08-17 03:31:00,56.6,55.8,30.21,ENE,61,0.0,2.0,97,0.00,,,0.00,0,WxPro DR1,2013-08-17 07:31:00,
2013-08-17 03:36:00,56.5,55.7,30.22,ENE,61,0.0,2.0,97,0.00,,,0.00,0,WxPro DR1,2013-08-17 07:36:00,
2013-08-17 03:41:00,56.4,55.6,30.22,ENE,61,0.0,0.0,97,0.00,,,0.00,0,WxPro DR1,2013-08-17 07:41:00,
2013-08-17 03:46:00,56.3,55.5,30.22,ENE,61,0.0,0.0,97,0.00,,,0.00,0,WxPro DR1,2013-08-17 07:46:00,
2013-08-17 03:51:00,56.2,55.4,30.22,ENE,61,0.0,0.0,97,0.00,,,0.00,0,WxPro DR1,2013-08-17 07:51:00,
2013-08-17 03:56:00,56.1,55.6,30.22,ENE,61,0.0,1.0,98,0.00,,,0.00,0,WxPro DR1,2013-08-17 07:56:00,
2013-08-17 04:01:00,56.0,55.5,30.22,ENE,61,0.0,1.0,98,0.00,,,0.00,0,WxPro DR1,2013-08-17 08:01:00,
2013-08-17 04:06:00,56.0,55.4,30.22,ENE,61,0.0,1.0,98,0.00,,,0.00,0,WxPro DR1,2013-08-17 08:06:00,
2013-08-17 04:11:00,55.9,55.3,30.22,ENE,61,0.0,1.0,98,0.00,,,0.00,0,WxPro DR1,2013-08-17 08:11:00,
2013-08-17 04:16:00,55.9,55.3,30.22,ENE,62,0.0,1.0,98,0.00,,,0.00,0,WxPro DR1,2013-08-17 08:16:00,
2013-08-17 04:21:00,55.9,55.3,30.22,ENE,61,0.0,0.0,98,0.00,,,0.00,0,WxPro DR1,2013-08-17 08:21:00,
2013-08-17 04:26:00,55.8,55.3,30.22,ENE,61,0.0,1.0,98,0.00,,,0.00,0,WxPro DR1,2013-08-17 08:26:00,
2013-08-17 04:31:00,55.8,55.2,30.23,ENE,62,0.0,1.0,98,0.00,,,0.00,0,WxPro DR1,2013-08-17 08:31:00,
2013-08-17 04:36:00,55.7,55.1,30.23,ENE,61,0.0,1.0,98,0.00,,,0.00,0,WxPro DR1,2013-08-17 08:36:00,
2013-08-17 04:41:00,55.7,55.1,30.23,ENE,61,0.0,2.0,98,0.00,,,0.00,0,WxPro DR1,2013-08-17 08:41:00,
2013-08-17 04:46:00,55.6,55.1,30.23,ENE,61,0.0,2.0,98,0.00,,,0.00,0,WxPro DR1,2013-08-17 08:46:00,
2013-08-17 04:51:00,55.5,55.0,30.23,ENE,61,0.0,1.0,98,0.00,,,0.00,0,WxPro DR1,2013-08-17 08:51:00,
2013-08-17 04:56:00,55.5,54.9,30.23,ENE,61,0.0,1.0,98,0.00,,,0.00,0,WxPro DR1,2013-08-17 08:56:00,
2013-08-17 05:01:00,55.4,54.8,30.23,ENE,61,0.0,0.0,98,0.00,,,0.00,0,WxPro DR1,2013-08-17 09:01:00,
2013-08-17 05:06:00,55.4,54.8,30.23,ENE,61,0.0,1.0,98,0.00,,,0.00,0,WxPro DR1,2013-08-17 09:06:00,
2013-08-17 05:11:00,55.4,54.8,30.23,ENE,61,0.0,1.0,98,0.00,,,0.00,0,WxPro DR1,2013-08-17 09:11:00,
2013-08-17 05:16:00,55.3,54.8,30.23,ENE,61,0.0,0.0,98,0.00,,,0.00,0,WxPro DR1,2013-08-17 09:16:00,
2013-08-17 05:21:00,55.3,54.7,30.24,ENE,62,0.0,0.0,98,0.00,,,0.00,0,WxPro DR1,2013-08-17 09:21:00,
2013-08-17 05:26:00,55.3,54.7,30.24,ENE,62,0.0,2.0,98,0.00,,,0.00,0,WxPro DR1,2013-08-17 09:26:00,
2013-08-17 05:31:00,55.2,54.7,30.24,ENE,61,0.0,2.0,98,0.00,,,0.00,0,WxPro DR1,2013-08-17 09:31:00,
2013-08-17 05:36:00,55.1,54.6,30.24,ENE,61,0.0,1.0,98,0.00,,,0.00,0,WxPro DR1,2013-08-17 09:36:00,
2013-08-17 05:41:00,55.1,54.5,30.24,ENE,61,0.0,0.0,98,0.00,,,0.00,0,WxPro DR1,2013-08-17 09:41:00,
2013-08-17 05:46:00,55.0,54.5,30.24,ENE,61,0.0,0.0,98,0.00,,,0.00,0,WxPro DR1,2013-08-17 09:46:00,
2013-08-17 05:51:00,55.0,54.4,30.24,ENE,61,0.0,0.0,98,0.00,,,0.00,0,WxPro DR1,2013-08-17 09:51:00,
2013-08-17 05:56:00,54.9,54.4,30.24,ENE,62,0.0,0.0,98,0.00,,,0.00,0,WxPro DR1,2013-08-17 09:56:00,
2013-08-17 06:01:00,54.9,54.3,30.24,ENE,61,0.0,0.0,98,0.00,,,0.00,0,WxPro DR1,2013-08-17 10:01:00,
2013-08-17 06:06:00,54.9,54.3,30.24,ENE,61,0.0,1.0,98,0.00,,,0.00,0,WxPro DR1,2013-08-17 10:06:00,
2013-08-17 06:11:00,54.8,54.2,30.24,ENE,61,0.0,1.0,98,0.00,,,0.00,0,WxPro DR1,2013-08-17 10:11:00,
2013-08-17 06:16:00,54.8,54.2,30.24,ENE,61,0.0,1.0,98,0.00,,,0.00,0,WxPro DR1,2013-08-17 10:16:00,
2013-08-17 06:21:00,54.8,54.2,30.24,ENE,61,0.0,1.0,98,0.00,,,0.00,0,WxPro DR1,2013-08-17 10:21:00,
2013-08-17 06:26:00,54.8,54.2,30.25,ENE,62,0.0,0.0,98,0.00,,,0.00,5,WxPro DR1,2013-08-17 10:26:00,
2013-08-17 06:31:00,54.8,54.2,30.25,ENE,61,0.0,0.0,98,0.00,,,0.00,9,WxPro DR1,2013-08-17 10:31:00,
2013-08-17 06:36:00,54.8,54.2,30.25,ENE,61,0.0,0.0,98,0.00,,,0.00,11,WxPro DR1,2013-08-17 10:36:00,
2013-08-17 06:41:00,54.8,54.2,30.25,ENE,61,0.0,0.0,98,0.00,,,0.00,12,WxPro DR1,2013-08-17 10:41:00,
2013-08-17 06:46:00,54.8,54.3,30.25,ENE,62,0.0,0.0,98,0.00,,,0.00,16,WxPro DR1,2013-08-17 10:46:00,
2013-08-17 06:51:00,54.9,54.3,30.25,ENE,61,0.0,0.0,98,0.00,,,0.00,19,WxPro DR1,2013-08-17 10:51:00,
2013-08-17 06:56:00,54.9,54.3,30.25,ENE,61,0.0,0.0,98,0.00,,,0.00,23,WxPro DR1,2013-08-17 10:56:00,
2013-08-17 07:01:00,55.0,54.4,30.26,ENE,61,0.0,0.0,98,0.00,,,0.00,25,WxPro DR1,2013-08-17 11:01:00,
2013-08-17 07:06:00,55.1,54.5,30.26,ENE,62,0.0,0.0,98,0.00,,,0.00,28,WxPro DR1,2013-08-17 11:06:00,
2013-08-17 07:11:00,55.2,54.6,30.26,ENE,61,0.0,0.0,98,0.00,,,0.00,30,WxPro DR1,2013-08-17 11:11:00,
2013-08-17 07:16:00,55.4,55.1,30.26,ENE,61,0.0,0.0,99,0.00,,,0.00,32,WxPro DR1,2013-08-17 11:16:00,
2013-08-17 07:21:00,55.5,55.2,30.26,ENE,61,0.0,0.0,99,0.00,,,0.00,35,WxPro DR1,2013-08-17 11:21:00,
2013-08-17 07:26:00,55.7,55.3,30.26,ENE,62,0.0,1.0,99,0.00,,,0.00,37,WxPro DR1,2013-08-17 11:26:00,
2013-08-17 07:31:00,55.9,55.4,30.26,South,180,0.0,4.0,98,0.00,,,0.00,39,WxPro DR1,2013-08-17 11:31:00,
2013-08-17 07:36:00,56.2,56.0,30.27,South,183,0.0,4.0,99,0.00,,,0.00,42,WxPro DR1,2013-08-17 11:36:00,
2013-08-17 07:41:00,56.6,56.0,30.26,South,183,0.0,4.0,98,0.00,,,0.00,160,WxPro DR1,2013-08-17 11:41:00,
2013-08-17 07:46:00,56.9,56.4,30.26,South,182,0.0,3.0,98,0.00,,,0.00,178,WxPro DR1,2013-08-17 11:46:00,
2013-08-17 07:51:00,57.3,57.0,30.26,South,182,0.0,3.0,99,0.00,,,0.00,193,WxPro DR1,2013-08-17 11:51:00,
2013-08-17 07:56:00,57.7,57.2,30.26,South,186,0.0,5.0,98,0.00,,,0.00,204,WxPro DR1,2013-08-17 11:56:00,
2013-08-17 08:01:00,58.1,57.6,30.27,South,185,2.0,5.0,98,0.00,,,0.00,218,WxPro DR1,2013-08-17 12:01:00,
2013-08-17 08:06:00,58.5,58.0,30.26,South,185,0.0,4.0,98,0.00,,,0.00,232,WxPro DR1,2013-08-17 12:06:00,
2013-08-17 08:11:00,58.9,58.1,30.27,South,186,0.0,4.0,97,0.00,,,0.00,251,WxPro DR1,2013-08-17 12:11:00,
2013-08-17 08:16:00,59.3,58.4,30.26,South,186,0.0,4.0,97,0.00,,,0.00,269,WxPro DR1,2013-08-17 12:16:00,
2013-08-17 08:21:00,59.9,58.5,30.26,South,186,1.0,5.0,95,0.00,,,0.00,276,WxPro DR1,2013-08-17 12:21:00,
2013-08-17 08:26:00,60.4,58.7,30.26,South,186,0.0,5.0,94,0.00,,,0.00,255,WxPro DR1,2013-08-17 12:26:00,
2013-08-17 08:31:00,61.1,59.0,30.26,South,186,0.0,4.0,93,0.00,,,0.00,265,WxPro DR1,2013-08-17 12:31:00,
2013-08-17 08:36:00,61.7,59.1,30.26,South,186,0.0,3.0,91,0.00,,,0.00,323,WxPro DR1,2013-08-17 12:36:00,
2013-08-17 08:41:00,62.2,59.4,30.25,South,186,0.0,2.0,91,0.00,,,0.00,348,WxPro DR1,2013-08-17 12:41:00,
2013-08-17 08:46:00,62.8,59.9,30.25,South,186,0.0,1.0,90,0.00,,,0.00,359,WxPro DR1,2013-08-17 12:46:00,
2013-08-17 08:51:00,63.5,59.9,30.25,South,186,0.0,3.0,88,0.00,,,0.00,392,WxPro DR1,2013-08-17 12:51:00,
2013-08-17 08:56:00,64.1,60.2,30.26,South,188,3.0,4.0,87,0.00,,,0.00,376,WxPro DR1,2013-08-17 12:56:00,
2013-08-17 09:01:00,64.6,60.3,30.26,South,188,0.0,4.0,86,0.00,,,0.00,443,WxPro DR1,2013-08-17 13:01:00,
2013-08-17 09:06:00,65.0,60.0,30.26,South,187,0.0,4.0,84,0.00,,,0.00,434,WxPro DR1,2013-08-17 13:06:00,
2013-08-17 09:11:00,65.4,60.6,30.26,South,187,0.0,4.0,84,0.00,,,0.00,450,WxPro DR1,2013-08-17 13:11:00,
2013-08-17 09:16:00,66.3,61.0,30.26,South,188,0.0,2.0,83,0.00,,,0.00,473,WxPro DR1,2013-08-17 13:16:00,
2013-08-17 09:21:00,66.8,61.5,30.26,South,188,0.0,2.0,83,0.00,,,0.00,494,WxPro DR1,2013-08-17 13:21:00,
2013-08-17 09:26:00,67.3,61.3,30.26,South,187,0.0,3.0,81,0.00,,,0.00,457,WxPro DR1,2013-08-17 13:26:00,
2013-08-17 09:31:00,67.9,61.9,30.26,South,187,0.0,3.0,81,0.00,,,0.00,529,WxPro DR1,2013-08-17 13:31:00,
2013-08-17 09:36:00,68.5,62.3,30.26,South,188,1.0,2.0,81,0.00,,,0.00,515,WxPro DR1,2013-08-17 13:36:00,
2013-08-17 09:41:00,69.1,62.3,30.26,South,187,0.0,2.0,79,0.00,,,0.00,526,WxPro DR1,2013-08-17 13:41:00,
2013-08-17 09:46:00,69.7,62.2,30.26,South,187,0.0,2.0,77,0.00,,,0.00,552,WxPro DR1,2013-08-17 13:46:00,
2013-08-17 09:51:00,70.1,62.2,30.26,South,187,1.0,2.0,76,0.00,,,0.00,582,WxPro DR1,2013-08-17 13:51:00,
2013-08-17 09:56:00,70.7,62.4,30.27,South,188,0.0,4.0,75,0.00,,,0.00,603,WxPro DR1,2013-08-17 13:56:00,
2013-08-17 10:01:00,71.1,62.0,30.27,South,188,0.0,4.0,73,0.00,,,0.00,617,WxPro DR1,2013-08-17 14:01:00,
2013-08-17 10:06:00,71.2,62.4,30.27,South,188,0.0,2.0,74,0.00,,,0.00,617,WxPro DR1,2013-08-17 14:06:00,
2013-08-17 10:11:00,71.6,62.5,30.27,South,188,0.0,2.0,73,0.00,,,0.00,601,WxPro DR1,2013-08-17 14:11:00,
2013-08-17 10:16:00,72.1,62.8,30.27,South,188,2.0,3.0,73,0.00,,,0.00,647,WxPro DR1,2013-08-17 14:16:00,
2013-08-17 10:21:00,72.4,63.2,30.27,SSW,192,3.0,3.0,73,0.00,,,0.00,652,WxPro DR1,2013-08-17 14:21:00,
2013-08-17 10:26:00,72.9,63.1,30.27,SSW,192,1.0,3.0,72,0.00,,,0.00,679,WxPro DR1,2013-08-17 14:26:00,
2013-08-17 10:31:00,73.6,63.6,30.27,South,190,0.0,4.0,71,0.00,,,0.00,689,WxPro DR1,2013-08-17 14:31:00,
2013-08-17 10:36:00,74.4,63.6,30.27,SSW,192,2.0,5.0,69,0.00,,,0.00,671,WxPro DR1,2013-08-17 14:36:00,
2013-08-17 10:41:00,74.0,64.0,30.27,South,191,3.0,5.0,71,0.00,,,0.00,642,WxPro DR1,2013-08-17 14:41:00,
2013-08-17 10:46:00,74.8,64.8,30.27,SSW,192,0.0,3.0,71,0.00,,,0.00,710,WxPro DR1,2013-08-17 14:46:00,
2013-08-17 10:51:00,76.1,64.7,30.27,SSW,192,0.0,4.0,68,0.00,,,0.00,710,WxPro DR1,2013-08-17 14:51:00,
2013-08-17 10:56:00,76.0,65.5,30.27,SSW,192,0.0,4.0,70,0.00,,,0.00,728,WxPro DR1,2013-08-17 14:56:00,
2013-08-17 11:01:00,76.3,64.6,30.27,SE,133,0.0,3.0,67,0.00,,,0.00,775,WxPro DR1,2013-08-17 15:01:00,
2013-08-17 11:06:00,77.2,64.6,30.27,SE,134,1.0,3.0,65,0.00,,,0.00,775,WxPro DR1,2013-08-17 15:06:00,
2013-08-17 11:11:00,77.5,65.2,30.27,SE,128,0.0,3.0,66,0.00,,,0.00,779,WxPro DR1,2013-08-17 15:11:00,
2013-08-17 11:16:00,78.4,65.2,30.27,SE,126,1.0,4.0,64,0.00,,,0.00,789,WxPro DR1,2013-08-17 15:16:00,
2013-08-17 11:21:00,78.9,65.4,30.26,SE,126,0.0,4.0,63,0.00,,,0.00,800,WxPro DR1,2013-08-17 15:21:00,
2013-08-17 11:26:00,79.5,65.1,30.26,SE,127,1.0,2.0,62,0.00,,,0.00,756,WxPro DR1,2013-08-17 15:26:00,
2013-08-17 11:31:00,79.5,64.8,30.26,SE,127,1.0,2.0,61,0.00,,,0.00,796,WxPro DR1,2013-08-17 15:31:00,
2013-08-17 11:36:00,80.3,64.8,30.26,ESE,120,0.0,3.0,59,0.00,,,0.00,828,WxPro DR1,2013-08-17 15:36:00,
2013-08-17 11:41:00,81.0,64.7,30.26,ESE,121,0.0,3.0,58,0.00,,,0.00,831,WxPro DR1,2013-08-17 15:41:00,
2013-08-17 11:46:00,80.2,63.6,30.27,ESE,123,0.0,4.0,57,0.00,,,0.00,847,WxPro DR1,2013-08-17 15:46:00,
2013-08-17 11:51:00,78.9,63.8,30.26,ESE,121,0.0,4.0,60,0.00,,,0.00,858,WxPro DR1,2013-08-17 15:51:00,
2013-08-17 11:56:00,79.1,62.7,30.26,ESE,115,0.0,3.0,57,0.00,,,0.00,861,WxPro DR1,2013-08-17 15:56:00,
2013-08-17 12:01:00,80.1,63.3,30.26,ESE,117,0.0,3.0,57,0.00,,,0.00,870,WxPro DR1,2013-08-17 16:01:00,
2013-08-17 12:06:00,80.7,62.2,30.26,ESE,116,0.0,3.0,54,0.00,,,0.00,870,WxPro DR1,2013-08-17 16:06:00,
2013-08-17 12:11:00,80.6,62.6,30.26,East,97,3.0,4.0,54,0.00,,,0.00,882,WxPro DR1,2013-08-17 16:11:00,
2013-08-17 12:16:00,80.5,62.2,30.25,East,97,0.0,4.0,54,0.00,,,0.00,889,WxPro DR1,2013-08-17 16:16:00,
2013-08-17 12:21:00,81.8,61.8,30.25,East,97,2.0,3.0,51,0.00,,,0.00,914,WxPro DR1,2013-08-17 16:21:00,
2013-08-17 12:26:00,82.1,62.2,30.25,ESE,102,0.0,4.0,51,0.00,,,0.00,909,WxPro DR1,2013-08-17 16:26:00,
2013-08-17 12:31:00,82.7,62.2,30.25,ESE,103,0.0,4.0,50,0.00,,,0.00,907,WxPro DR1,2013-08-17 16:31:00,
2013-08-17 12:36:00,82.7,62.8,30.25,ESE,107,0.0,3.0,51,0.00,,,0.00,937,WxPro DR1,2013-08-17 16:36:00,
2013-08-17 12:41:00,82.0,62.6,30.25,SSE,160,0.0,4.0,52,0.00,,,0.00,979,WxPro DR1,2013-08-17 16:41:00,
2013-08-17 12:46:00,81.3,61.3,30.25,South,175,1.0,5.0,51,0.00,,,0.00,1000,WxPro DR1,2013-08-17 16:46:00,
2013-08-17 12:51:00,80.5,60.8,30.24,SSE,157,0.0,5.0,51,0.00,,,0.00,983,WxPro DR1,2013-08-17 16:51:00,
2013-08-17 12:56:00,81.0,62.1,30.24,SSE,148,0.0,4.0,53,0.00,,,0.00,1009,WxPro DR1,2013-08-17 16:56:00,
2013-08-17 13:01:00,81.8,61.9,30.24,East,82,1.0,4.0,51,0.00,,,0.00,914,WxPro DR1,2013-08-17 17:01:00,
2013-08-17 13:06:00,82.0,61.7,30.24,East,85,0.0,4.0,50,0.00,,,0.00,204,WxPro DR1,2013-08-17 17:06:00,
2013-08-17 13:11:00,81.6,61.4,30.24,East,85,0.0,3.0,51,0.00,,,0.00,179,WxPro DR1,2013-08-17 17:11:00,
2013-08-17 13:16:00,80.8,61.5,30.24,East,84,0.0,2.0,52,0.00,,,0.00,1004,WxPro DR1,2013-08-17 17:16:00,
2013-08-17 13:21:00,80.1,60.5,30.24,East,84,0.0,2.0,51,0.00,,,0.00,371,WxPro DR1,2013-08-17 17:21:00,
2013-08-17 13:26:00,79.7,60.6,30.24,East,84,0.0,2.0,52,0.00,,,0.00,1011,WxPro DR1,2013-08-17 17:26:00,
2013-08-17 13:31:00,80.4,61.6,30.24,East,83,0.0,2.0,53,0.00,,,0.00,977,WxPro DR1,2013-08-17 17:31:00,
2013-08-17 13:36:00,81.3,60.8,30.24,ENE,74,1.0,4.0,50,0.00,,,0.00,895,WxPro DR1,2013-08-17 17:36:00,
2013-08-17 13:41:00,81.9,61.2,30.24,ENE,76,0.0,4.0,50,0.00,,,0.00,940,WxPro DR1,2013-08-17 17:41:00,
2013-08-17 13:46:00,82.7,62.4,30.24,ENE,76,2.0,2.0,51,0.00,,,0.00,940,WxPro DR1,2013-08-17 17:46:00,
2013-08-17 13:51:00,82.6,61.3,30.24,ENE,76,0.0,3.0,49,0.00,,,0.00,258,WxPro DR1,2013-08-17 17:51:00,
2013-08-17 13:56:00,82.1,62.0,30.24,ENE,77,0.0,3.0,51,0.00,,,0.00,306,WxPro DR1,2013-08-17 17:56:00,
2013-08-17 14:01:00,82.0,61.3,30.24,ENE,77,0.0,1.0,50,0.00,,,0.00,225,WxPro DR1,2013-08-17 18:01:00,
2013-08-17 14:06:00,81.6,60.5,30.23,ENE,76,0.0,2.0,49,0.00,,,0.00,229,WxPro DR1,2013-08-17 18:06:00,
2013-08-17 14:11:00,80.2,60.0,30.23,ENE,78,0.0,2.0,50,0.00,,,0.00,1011,WxPro DR1,2013-08-17 18:11:00,
2013-08-17 14:16:00,79.8,59.8,30.23,ENE,62,3.0,4.0,51,0.00,,,0.00,1005,WxPro DR1,2013-08-17 18:16:00,
2013-08-17 14:21:00,79.7,59.7,30.23,ENE,57,0.0,4.0,51,0.00,,,0.00,921,WxPro DR1,2013-08-17 18:21:00,
2013-08-17 14:26:00,80.2,60.6,30.23,NE,56,1.0,3.0,51,0.00,,,0.00,262,WxPro DR1,2013-08-17 18:26:00,
2013-08-17 14:31:00,80.8,61.0,30.23,ENE,61,0.0,3.0,51,0.00,,,0.00,241,WxPro DR1,2013-08-17 18:31:00,
2013-08-17 14:36:00,80.8,61.4,30.22,East,81,0.0,4.0,52,0.00,,,0.00,809,WxPro DR1,2013-08-17 18:36:00,
2013-08-17 14:41:00,81.0,61.6,30.22,East,80,0.0,4.0,52,0.00,,,0.00,346,WxPro DR1,2013-08-17 18:41:00,
2013-08-17 14:46:00,81.3,61.0,30.22,East,80,0.0,2.0,50,0.00,,,0.00,214,WxPro DR1,2013-08-17 18:46:00,
2013-08-17 14:51:00,80.9,61.7,30.22,East,80,0.0,2.0,52,0.00,,,0.00,218,WxPro DR1,2013-08-17 18:51:00,
2013-08-17 14:56:00,80.0,60.0,30.22,ENE,78,0.0,3.0,50,0.00,,,0.00,272,WxPro DR1,2013-08-17 18:56:00,
2013-08-17 15:01:00,79.5,60.7,30.22,East,86,0.0,5.0,53,0.00,,,0.00,788,WxPro DR1,2013-08-17 19:01:00,
2013-08-17 15:06:00,79.6,61.0,30.22,East,83,0.0,5.0,53,0.00,,,0.00,803,WxPro DR1,2013-08-17 19:06:00,
2013-08-17 15:11:00,80.8,61.0,30.22,East,84,0.0,4.0,51,0.00,,,0.00,816,WxPro DR1,2013-08-17 19:11:00,
2013-08-17 15:16:00,81.9,61.9,30.22,East,86,0.0,5.0,51,0.00,,,0.00,870,WxPro DR1,2013-08-17 19:16:00,
2013-08-17 15:21:00,82.6,62.0,30.22,ESE,112,0.0,5.0,50,0.00,,,0.00,821,WxPro DR1,2013-08-17 19:21:00,
2013-08-17 15:26:00,82.7,62.8,30.21,ESE,113,0.0,3.0,51,0.00,,,0.00,874,WxPro DR1,2013-08-17 19:26:00,
2013-08-17 15:31:00,82.9,61.7,30.22,ESE,109,1.0,5.0,49,0.00,,,0.00,689,WxPro DR1,2013-08-17 19:31:00,
2013-08-17 15:36:00,83.3,60.5,30.22,ESE,107,0.0,5.0,46,0.00,,,0.00,650,WxPro DR1,2013-08-17 19:36:00,
2013-08-17 15:41:00,83.5,60.7,30.21,ESE,107,1.0,3.0,46,0.00,,,0.00,670,WxPro DR1,2013-08-17 19:41:00,
2013-08-17 15:46:00,83.3,59.8,30.21,East,97,2.0,4.0,45,0.00,,,0.00,417,WxPro DR1,2013-08-17 19:46:00,
2013-08-17 15:51:00,83.1,62.2,30.21,East,97,1.0,4.0,50,0.00,,,0.00,592,WxPro DR1,2013-08-17 19:51:00,
2013-08-17 15:56:00,82.9,61.3,30.22,SE,128,1.0,3.0,48,0.00,,,0.00,482,WxPro DR1,2013-08-17 19:56:00,
2013-08-17 16:01:00,82.4,61.0,30.22,SE,128,0.0,3.0,48,0.00,,,0.00,670,WxPro DR1,2013-08-17 20:01:00,
2013-08-17 16:06:00,82.4,61.9,30.22,SE,128,0.0,1.0,50,0.00,,,0.00,684,WxPro DR1,2013-08-17 20:06:00,
2013-08-17 16:11:00,83.0,62.4,30.22,SE,128,0.0,2.0,50,0.00,,,0.00,571,WxPro DR1,2013-08-17 20:11:00,
2013-08-17 16:16:00,83.3,61.5,30.21,South,172,0.0,3.0,48,0.00,,,0.00,710,WxPro DR1,2013-08-17 20:16:00,
2013-08-17 16:21:00,83.6,62.3,30.21,South,172,0.0,3.0,49,0.00,,,0.00,566,WxPro DR1,2013-08-17 20:21:00,
2013-08-17 16:26:00,83.5,61.3,30.22,East,90,5.0,5.0,47,0.00,,,0.00,512,WxPro DR1,2013-08-17 20:26:00,
2013-08-17 16:31:00,82.9,59.9,30.22,East,97,1.0,5.0,46,0.00,,,0.00,550,WxPro DR1,2013-08-17 20:31:00,
2013-08-17 16:36:00,82.3,64.5,30.22,NE,45,0.0,6.0,55,0.00,,,0.00,501,WxPro DR1,2013-08-17 20:36:00,
2013-08-17 16:41:00,81.6,64.9,30.22,NNE,21,5.0,6.0,57,0.00,,,0.00,239,WxPro DR1,2013-08-17 20:41:00,
2013-08-17 16:46:00,81.0,64.3,30.21,NE,36,0.0,5.0,57,0.00,,,0.00,229,WxPro DR1,2013-08-17 20:46:00,
2013-08-17 16:51:00,80.4,64.8,30.21,NNE,15,3.0,5.0,59,0.00,,,0.00,188,WxPro DR1,2013-08-17 20:51:00,
2013-08-17 16:56:00,79.8,64.2,30.22,NNE,28,0.0,6.0,59,0.00,,,0.00,121,WxPro DR1,2013-08-17 20:56:00,
2013-08-17 17:01:00,79.2,64.6,30.22,East,90,1.0,6.0,61,0.00,,,0.00,123,WxPro DR1,2013-08-17 21:01:00,
2013-08-17 17:06:00,78.4,64.2,30.22,East,90,1.0,4.0,62,0.00,,,0.00,141,WxPro DR1,2013-08-17 21:06:00,
2013-08-17 17:11:00,78.0,63.5,30.22,NE,42,2.0,4.0,61,0.00,,,0.00,534,WxPro DR1,2013-08-17 21:11:00,
2013-08-17 17:16:00,78.2,64.1,30.22,ENE,61,2.0,4.0,62,0.00,,,0.00,452,WxPro DR1,2013-08-17 21:16:00,
2013-08-17 17:21:00,78.9,64.2,30.22,NE,36,1.0,4.0,61,0.00,,,0.00,434,WxPro DR1,2013-08-17 21:21:00,
2013-08-17 17:26:00,79.5,63.9,30.22,North,356,2.0,7.0,59,0.00,,,0.00,506,WxPro DR1,2013-08-17 21:26:00,
2013-08-17 17:31:00,79.6,64.0,30.21,ESE,119,4.0,9.0,59,0.00,,,0.00,499,WxPro DR1,2013-08-17 21:31:00,
2013-08-17 17:36:00,79.4,64.3,30.21,East,97,5.0,9.0,60,0.00,,,0.00,304,WxPro DR1,2013-08-17 21:36:00,
2013-08-17 17:41:00,79.6,64.5,30.21,NE,48,1.0,6.0,60,0.00,,,0.00,383,WxPro DR1,2013-08-17 21:41:00,
2013-08-17 17:46:00,80.3,64.6,30.21,NE,45,2.0,6.0,59,0.00,,,0.00,432,WxPro DR1,2013-08-17 21:46:00,
2013-08-17 17:51:00,80.4,65.2,30.21,ESE,111,4.0,6.0,60,0.00,,,0.00,418,WxPro DR1,2013-08-17 21:51:00,
2013-08-17 17:56:00,80.1,64.9,30.21,ENE,60,2.0,7.0,60,0.00,,,0.00,309,WxPro DR1,2013-08-17 21:56:00,
2013-08-17 18:01:00,79.6,64.5,30.21,NE,49,3.0,7.0,60,0.00,,,0.00,297,WxPro DR1,2013-08-17 22:01:00,
2013-08-17 18:06:00,79.0,64.8,30.21,ENE,67,0.0,5.0,62,0.00,,,0.00,144,WxPro DR1,2013-08-17 22:06:00,
2013-08-17 18:11:00,78.5,64.4,30.21,ENE,70,2.0,4.0,62,0.00,,,0.00,313,WxPro DR1,2013-08-17 22:11:00,
2013-08-17 18:16:00,78.3,64.4,30.20,ENE,61,1.0,4.0,62,0.00,,,0.00,290,WxPro DR1,2013-08-17 22:16:00,
2013-08-17 18:21:00,78.6,64.3,30.21,ESE,103,0.0,5.0,61,0.00,,,0.00,241,WxPro DR1,2013-08-17 22:21:00,
2013-08-17 18:26:00,78.6,64.6,30.21,East,94,1.0,5.0,62,0.00,,,0.00,262,WxPro DR1,2013-08-17 22:26:00,
2013-08-17 18:31:00,78.3,64.7,30.21,East,91,0.0,4.0,63,0.00,,,0.00,248,WxPro DR1,2013-08-17 22:31:00,
2013-08-17 18:36:00,78.3,64.2,30.21,ENE,64,1.0,5.0,62,0.00,,,0.00,230,WxPro DR1,2013-08-17 22:36:00,
2013-08-17 18:41:00,78.2,64.1,30.21,ENE,63,0.0,5.0,62,0.00,,,0.00,209,WxPro DR1,2013-08-17 22:41:00,
2013-08-17 18:46:00,77.9,64.1,30.21,East,92,2.0,5.0,63,0.00,,,0.00,186,WxPro DR1,2013-08-17 22:46:00,
2013-08-17 18:51:00,77.6,64.4,30.21,ENE,68,0.0,4.0,64,0.00,,,0.00,169,WxPro DR1,2013-08-17 22:51:00,
2013-08-17 18:56:00,77.5,64.3,30.21,ENE,68,0.0,3.0,64,0.00,,,0.00,149,WxPro DR1,2013-08-17 22:56:00,
2013-08-17 19:01:00,77.6,64.8,30.21,ENE,68,0.0,2.0,65,0.00,,,0.00,134,WxPro DR1,2013-08-17 23:01:00,
2013-08-17 19:06:00,77.6,64.9,30.21,ENE,70,1.0,1.0,65,0.00,,,0.00,120,WxPro DR1,2013-08-17 23:06:00,
2013-08-17 19:11:00,77.4,64.7,30.21,ENE,72,0.0,2.0,65,0.00,,,0.00,102,WxPro DR1,2013-08-17 23:11:00,
2013-08-17 19:16:00,77.2,64.9,30.21,ENE,72,0.0,2.0,66,0.00,,,0.00,86,WxPro DR1,2013-08-17 23:16:00,
2013-08-17 19:21:00,77.0,64.8,30.21,ENE,72,0.0,2.0,66,0.00,,,0.00,72,WxPro DR1,2013-08-17 23:21:00,
2013-08-17 19:26:00,76.5,64.5,30.21,ENE,72,3.0,3.0,67,0.00,,,0.00,33,WxPro DR1,2013-08-17 23:26:00,
2013-08-17 19:31:00,75.9,64.2,30.20,ENE,74,0.0,3.0,67,0.00,,,0.00,30,WxPro DR1,2013-08-17 23:31:00,
2013-08-17 19:36:00,75.5,64.6,30.20,ENE,74,2.0,2.0,69,0.00,,,0.00,26,WxPro DR1,2013-08-17 23:36:00,
2013-08-17 19:41:00,75.0,64.1,30.21,ENE,74,0.0,3.0,69,0.00,,,0.00,23,WxPro DR1,2013-08-17 23:41:00,
2013-08-17 19:46:00,74.5,64.1,30.21,ENE,74,0.0,3.0,70,0.00,,,0.00,21,WxPro DR1,2013-08-17 23:46:00,
2013-08-17 19:51:00,74.0,64.0,30.20,ENE,74,0.0,1.0,71,0.00,,,0.00,16,WxPro DR1,2013-08-17 23:51:00,
2013-08-17 19:56:00,73.5,63.9,30.21,ENE,74,0.0,1.0,72,0.00,,,0.00,11,WxPro DR1,2013-08-17 23:56:00,
2013-08-17 20:01:00,73.1,63.5,30.20,ENE,74,0.0,1.0,72,0.00,,,0.00,9,WxPro DR1,2013-08-18 00:01:00,
2013-08-17 20:06:00,72.5,63.4,30.20,ENE,74,0.0,2.0,73,0.00,,,0.00,5,WxPro DR1,2013-08-18 00:06:00,
2013-08-17 20:11:00,72.1,63.3,30.20,ENE,74,0.0,2.0,74,0.00,,,0.00,0,WxPro DR1,2013-08-18 00:11:00,
2013-08-17 20:16:00,71.7,62.9,30.20,ENE,74,0.0,2.0,74,0.00,,,0.00,0,WxPro DR1,2013-08-18 00:16:00,
2013-08-17 20:21:00,71.3,63.0,30.20,ENE,74,0.0,2.0,75,0.00,,,0.00,0,WxPro DR1,2013-08-18 00:21:00,
2013-08-17 20:26:00,71.0,62.7,30.20,ENE,74,0.0,2.0,75,0.00,,,0.00,0,WxPro DR1,2013-08-18 00:26:00,
2013-08-17 20:31:00,70.7,62.8,30.20,ENE,74,0.0,2.0,76,0.00,,,0.00,0,WxPro DR1,2013-08-18 00:31:00,
2013-08-17 20:36:00,70.4,62.9,30.20,ENE,74,0.0,0.0,77,0.00,,,0.00,0,WxPro DR1,2013-08-18 00:36:00,
2013-08-17 20:41:00,70.1,62.5,30.20,ENE,74,0.0,0.0,77,0.00,,,0.00,0,WxPro DR1,2013-08-18 00:41:00,
2013-08-17 20:46:00,69.7,62.5,30.21,ENE,74,0.0,1.0,78,0.00,,,0.00,0,WxPro DR1,2013-08-18 00:46:00,
2013-08-17 20:51:00,69.4,62.6,30.20,ENE,74,0.0,1.0,79,0.00,,,0.00,0,WxPro DR1,2013-08-18 00:51:00,
2013-08-17 20:56:00,69.1,62.7,30.21,ENE,74,0.0,0.0,80,0.00,,,0.00,0,WxPro DR1,2013-08-18 00:56:00,
2013-08-17 21:01:00,68.7,62.6,30.20,ENE,74,0.0,0.0,81,0.00,,,0.00,0,WxPro DR1,2013-08-18 01:01:00,
2013-08-17 21:06:00,68.4,62.6,30.21,ENE,74,0.0,0.0,82,0.00,,,0.00,0,WxPro DR1,2013-08-18 01:06:00,
2013-08-17 21:11:00,68.1,62.4,30.21,ENE,74,0.0,0.0,82,0.00,,,0.00,0,WxPro DR1,2013-08-18 01:11:00,
2013-08-17 21:16:00,67.8,62.4,30.21,ENE,74,0.0,1.0,83,0.00,,,0.00,0,WxPro DR1,2013-08-18 01:16:00,
2013-08-17 21:21:00,67.4,62.4,30.21,ENE,74,0.0,1.0,84,0.00,,,0.00,0,WxPro DR1,2013-08-18 01:21:00,
2013-08-17 21:26:00,67.0,62.4,30.22,ENE,74,0.0,0.0,85,0.00,,,0.00,0,WxPro DR1,2013-08-18 01:26:00,
2013-08-17 21:31:00,66.6,62.0,30.22,ENE,74,0.0,0.0,85,0.00,,,0.00,0,WxPro DR1,2013-08-18 01:31:00,
2013-08-17 21:36:00,66.2,61.9,30.22,ENE,74,0.0,0.0,86,0.00,,,0.00,0,WxPro DR1,2013-08-18 01:36:00,
2013-08-17 21:41:00,65.8,61.8,30.21,ENE,74,0.0,0.0,87,0.00,,,0.00,0,WxPro DR1,2013-08-18 01:41:00,
2013-08-17 21:46:00,65.6,61.6,30.21,ENE,74,0.0,0.0,87,0.00,,,0.00,0,WxPro DR1,2013-08-18 01:46:00,
2013-08-17 21:51:00,65.3,61.6,30.21,ENE,74,0.0,0.0,88,0.00,,,0.00,0,WxPro DR1,2013-08-18 01:51:00,
2013-08-17 21:56:00,65.1,61.4,30.21,ENE,74,0.0,0.0,88,0.00,,,0.00,0,WxPro DR1,2013-08-18 01:56:00,
2013-08-17 22:01:00,64.8,61.2,30.21,ENE,74,0.0,0.0,88,0.00,,,0.00,0,WxPro DR1,2013-08-18 02:01:00,
2013-08-17 22:06:00,64.7,61.4,30.21,ENE,74,0.0,0.0,89,0.00,,,0.00,0,WxPro DR1,2013-08-18 02:06:00,
2013-08-17 22:11:00,64.6,61.2,30.21,ENE,74,0.0,0.0,89,0.00,,,0.00,0,WxPro DR1,2013-08-18 02:11:00,
2013-08-17 22:16:00,64.4,61.1,30.22,ENE,74,0.0,0.0,89,0.00,,,0.00,0,WxPro DR1,2013-08-18 02:16:00,
2013-08-17 22:21:00,64.2,61.3,30.22,ENE,74,0.0,0.0,90,0.00,,,0.00,0,WxPro DR1,2013-08-18 02:21:00,
2013-08-17 22:26:00,64.2,60.9,30.22,ENE,74,0.0,0.0,89,0.00,,,0.00,0,WxPro DR1,2013-08-18 02:26:00,
2013-08-17 22:31:00,64.2,60.9,30.21,ENE,74,0.0,0.0,89,0.00,,,0.00,0,WxPro DR1,2013-08-18 02:31:00,
2013-08-17 22:36:00,64.1,60.7,30.21,ENE,74,0.0,0.0,89,0.00,,,0.00,0,WxPro DR1,2013-08-18 02:36:00,
2013-08-17 22:41:00,63.9,60.7,30.21,ENE,74,0.0,0.0,89,0.00,,,0.00,0,WxPro DR1,2013-08-18 02:41:00,
2013-08-17 22:46:00,63.8,60.8,30.21,ENE,74,0.0,0.0,90,0.00,,,0.00,0,WxPro DR1,2013-08-18 02:46:00,
2013-08-17 22:51:00,63.6,60.6,30.21,ENE,74,0.0,0.0,90,0.00,,,0.00,0,WxPro DR1,2013-08-18 02:51:00,
2013-08-17 22:56:00,63.4,60.7,30.21,ENE,74,0.0,0.0,91,0.00,,,0.00,0,WxPro DR1,2013-08-18 02:56:00,
2013-08-17 23:01:00,63.2,60.5,30.21,ENE,74,0.0,0.0,91,0.00,,,0.00,0,WxPro DR1,2013-08-18 03:01:00,
2013-08-17 23:06:00,63.0,60.3,30.21,ENE,74,0.0,0.0,91,0.00,,,0.00,0,WxPro DR1,2013-08-18 03:06:00,
2013-08-17 23:11:00,62.8,60.5,30.22,ENE,74,0.0,0.0,92,0.00,,,0.00,0,WxPro DR1,2013-08-18 03:11:00,
2013-08-17 23:16:00,62.7,60.3,30.21,ENE,74,0.0,0.0,92,0.00,,,0.00,0,WxPro DR1,2013-08-18 03:16:00,
2013-08-17 23:21:00,62.5,60.1,30.22,ENE,74,0.0,0.0,92,0.00,,,0.00,0,WxPro DR1,2013-08-18 03:21:00,
2013-08-17 23:26:00,62.3,60.0,30.22,ENE,74,0.0,0.0,92,0.00,,,0.00,0,WxPro DR1,2013-08-18 03:26:00,
2013-08-17 23:31:00,62.2,60.1,30.21,ENE,74,0.0,0.0,93,0.00,,,0.00,0,WxPro DR1,2013-08-18 03:31:00,
2013-08-17 23:36:00,62.0,60.0,30.21,ENE,74,0.0,0.0,93,0.00,,,0.00,0,WxPro DR1,2013-08-18 03:36:00,
2013-08-17 23:41:00,61.9,59.8,30.21,ENE,74,0.0,0.0,93,0.00,,,0.00,0,WxPro DR1,2013-08-18 03:41:00,
2013-08-17 23:46:00,61.8,60.0,30.21,ENE,74,0.0,0.0,94,0.00,,,0.00,0,WxPro DR1,2013-08-18 03:46:00,
2013-08-17 23:51:00,61.6,59.9,30.21,ENE,74,0.0,0.0,94,0.00,,,0.00,0,WxPro DR1,2013-08-18 03:51:00,
2013-08-17 23:56:00,61.5,59.8,30.21,ENE,74,0.0,0.0,94,0.00,,,0.00,0,WxPro DR1,2013-08-18 03:56:00,